When you browse on this site, cookies collect data to enhance your experience and personalize the content and advertising you see.
Visit our Privacy Policy to learn more. By continuing to use the site, you agree to this use of cookies and data.
  • en Suisse
  • Liste des pays
  • À 7 jours
  • Température de l'eau
  • Carte satellitaire
  • Carte météo
  • Widgets météo
  • user-avatar
    Se connecter

    Météo par heure à Staryy Orebash

    Ce jour, 20 Février, Mercredi

    Heure Température Précipitation Vent Pression Humidité
    00:00 -17°C° 0 mm 1 m/s 745 mmHg 92%
    01:00 -18°C° 0 mm 1 m/s 745 mmHg 92%
    02:00 -18°C° 0 mm 1 m/s 745 mmHg 92%
    03:00 -19°C° 0 mm 1 m/s 745 mmHg 92%
    04:00 -18°C° 0 mm 1 m/s 745 mmHg 93%
    05:00 -19°C° 0 mm 1 m/s 745 mmHg 94%
    06:00 -19°C° 0 mm 1 m/s 745 mmHg 95%
    07:00 -19°C° 0 mm 1 m/s 746 mmHg 95%
    08:00 -20°C° 0 mm 2 m/s 746 mmHg 95%
    09:00 -18°C° 0 mm 2 m/s 746 mmHg 94%
    10:00 -17°C° 0 mm 2 m/s 746 mmHg 93%
    11:00 -17°C° 0 mm 3 m/s 746 mmHg 93%
    12:00 -16°C° 0 mm 3 m/s 746 mmHg 93%
    13:00 -15°C° 0 mm 4 m/s 745 mmHg 92%
    14:00 -15°C° 0 mm 4 m/s 745 mmHg 92%
    15:00 -14°C° 0 mm 4 m/s 745 mmHg 93%
    16:00 -14°C° 0 mm 5 m/s 745 mmHg 93%
    17:00 -13°C° 0 mm 5 m/s 744 mmHg 93%
    18:00 -13°C° 0 mm 5 m/s 744 mmHg 93%
    19:00 -14°C° 0 mm 6 m/s 744 mmHg 93%
    20:00 -14°C° 0 mm 6 m/s 743 mmHg 93%
    21:00 -12°C° 0 mm 6 m/s 743 mmHg 92%
    22:00 -11°C° 0 mm 6 m/s 743 mmHg 92%
    23:00 -11°C° 0.1 mm 6 m/s 742 mmHg 92%

    Demain, 21 Février, Jeudi

    Heure Température Précipitation Vent Pression Humidité
    00:00 -11°C° 0.1 mm 6 m/s 742 mmHg 92%
    01:00 -11°C° 0.1 mm 6 m/s 742 mmHg 92%
    02:00 -10°C° 0.1 mm 6 m/s 742 mmHg 92%
    03:00 -10°C° 0.1 mm 6 m/s 742 mmHg 92%
    04:00 -9°C° 0.1 mm 6 m/s 741 mmHg 92%
    05:00 -9°C° 0.1 mm 6 m/s 741 mmHg 92%
    06:00 -9°C° 0.1 mm 6 m/s 741 mmHg 92%
    07:00 -9°C° 0.1 mm 6 m/s 741 mmHg 92%
    08:00 -9°C° 0.1 mm 6 m/s 741 mmHg 91%
    09:00 -8°C° 0.1 mm 6 m/s 741 mmHg 91%
    10:00 -8°C° 0.1 mm 7 m/s 741 mmHg 91%
    11:00 -8°C° 0.2 mm 6 m/s 741 mmHg 91%
    12:00 -6°C° 0.2 mm 6 m/s 742 mmHg 91%
    13:00 -6°C° 0.2 mm 6 m/s 742 mmHg 91%
    14:00 -5°C° 0.1 mm 6 m/s 742 mmHg 91%
    15:00 -5°C° 0.1 mm 6 m/s 742 mmHg 91%
    16:00 -5°C° 0.1 mm 5 m/s 742 mmHg 90%
    17:00 -5°C° 0.2 mm 5 m/s 742 mmHg 91%
    18:00 -6°C° 0.2 mm 5 m/s 743 mmHg 92%
    19:00 -6°C° 0.2 mm 5 m/s 743 mmHg 93%
    20:00 -6°C° 0.3 mm 5 m/s 743 mmHg 93%
    21:00 -6°C° 0.3 mm 5 m/s 743 mmHg 93%
    22:00 -6°C° 0.3 mm 5 m/s 743 mmHg 93%
    23:00 -6°C° 0.2 mm 5 m/s 743 mmHg 93%

    Après-demain, 22 Février, Vendredi

    Heure Température Précipitation Vent Pression Humidité
    00:00 -6°C° 0.2 mm 5 m/s 743 mmHg 93%
    01:00 -5°C° 0.2 mm 5 m/s 743 mmHg 93%
    02:00 -5°C° 0.2 mm 5 m/s 743 mmHg 93%
    03:00 -4°C° 0.2 mm 5 m/s 743 mmHg 93%
    04:00 -4°C° 0.2 mm 5 m/s 743 mmHg 93%
    05:00 -2°C° 0.2 mm 5 m/s 742 mmHg 92%
    06:00 -3°C° 0.2 mm 6 m/s 742 mmHg 91%
    07:00 -3°C° 0.2 mm 6 m/s 742 mmHg 90%
    08:00 -3°C° 0.1 mm 6 m/s 742 mmHg 90%
    09:00 -4°C° 0.1 mm 7 m/s 742 mmHg 89%
    10:00 -4°C° 0.1 mm 7 m/s 742 mmHg 89%
    11:00 -4°C° 0.2 mm 7 m/s 742 mmHg 89%
    12:00 -6°C° 0.2 mm 7 m/s 742 mmHg 90%
    13:00 -6°C° 0.2 mm 7 m/s 742 mmHg 90%
    14:00 -6°C° 0.4 mm 7 m/s 742 mmHg 90%
    15:00 -6°C° 0.4 mm 7 m/s 742 mmHg 89%
    16:00 -6°C° 0.4 mm 7 m/s 742 mmHg 89%
    17:00 -5°C° 0.3 mm 6 m/s 742 mmHg 90%
    18:00 -5°C° 0.3 mm 6 m/s 743 mmHg 92%
    19:00 -5°C° 0.3 mm 5 m/s 743 mmHg 93%
    20:00 -5°C° 0.5 mm 5 m/s 743 mmHg 93%
    21:00 -5°C° 0.5 mm 5 m/s 744 mmHg 93%
    22:00 -5°C° 0.5 mm 5 m/s 744 mmHg 94%
    23:00 -7°C° 0.1 mm 5 m/s 745 mmHg 92%

    23 Février, Samedi

    Heure Température Précipitation Vent Pression Humidité
    00:00 -10°C° 0.1 mm 4 m/s 745 mmHg 91%
    01:00 -14°C° 0.1 mm 4 m/s 746 mmHg 89%
    02:00 -14°C° 0 mm 4 m/s 747 mmHg 91%
    03:00 -14°C° 0 mm 3 m/s 747 mmHg 92%
    04:00 -15°C° 0 mm 3 m/s 748 mmHg 93%
    05:00 -14°C° 0.1 mm 3 m/s 748 mmHg 94%
    06:00 -14°C° 0.1 mm 4 m/s 749 mmHg 94%
    07:00 -12°C° 0.1 mm 4 m/s 749 mmHg 95%
    08:00 -11°C° 0.1 mm 4 m/s 749 mmHg 93%
    09:00 -11°C° 0.1 mm 4 m/s 750 mmHg 92%
    10:00 -10°C° 0.1 mm 4 m/s 750 mmHg 91%
    11:00 -10°C° 0.1 mm 4 m/s 750 mmHg 91%
    12:00 -9°C° 0.1 mm 4 m/s 751 mmHg 90%
    13:00 -9°C° 0.1 mm 4 m/s 751 mmHg 90%
    14:00 -8°C° 0.1 mm 3 m/s 751 mmHg 90%
    15:00 -7°C° 0.1 mm 3 m/s 752 mmHg 91%
    16:00 -6°C° 0.1 mm 2 m/s 752 mmHg 91%
    17:00 -7°C° 0.1 mm 2 m/s 752 mmHg 92%
    18:00 -8°C° 0.1 mm 2 m/s 753 mmHg 93%
    19:00 -9°C° 0.1 mm 2 m/s 753 mmHg 95%
    20:00 -10°C° 0 mm 2 m/s 753 mmHg 95%
    21:00 -12°C° 0 mm 2 m/s 753 mmHg 95%
    22:00 -13°C° 0 mm 2 m/s 754 mmHg 95%
    23:00 -13°C° 0 mm 2 m/s 754 mmHg 95%

    24 Février, Dimanche

    Heure Température Précipitation Vent Pression Humidité
    00:00 -13°C° 0 mm 2 m/s 754 mmHg 95%
    01:00 -13°C° 0 mm 2 m/s 754 mmHg 95%
    02:00 -12°C° 0 mm 2 m/s 755 mmHg 95%
    03:00 -12°C° 0 mm 3 m/s 755 mmHg 96%
    04:00 -9°C° 0 mm 3 m/s 755 mmHg 96%
    05:00 -10°C° 0.1 mm 3 m/s 755 mmHg 95%
    06:00 -12°C° 0.1 mm 4 m/s 756 mmHg 95%
    07:00 -12°C° 0.1 mm 4 m/s 756 mmHg 95%
    08:00 -12°C° 0 mm 4 m/s 756 mmHg 94%
    09:00 -12°C° 0 mm 4 m/s 756 mmHg 93%
    10:00 -13°C° 0 mm 5 m/s 756 mmHg 93%
    11:00 -13°C° 0 mm 5 m/s 756 mmHg 92%
    12:00 -12°C° 0 mm 5 m/s 757 mmHg 91%
    13:00 -12°C° 0 mm 5 m/s 757 mmHg 90%
    14:00 -11°C° 0.1 mm 5 m/s 757 mmHg 89%
    15:00 -11°C° 0.1 mm 5 m/s 757 mmHg 88%
    16:00 -11°C° 0.1 mm 5 m/s 757 mmHg 87%
    17:00 -12°C° 0 mm 5 m/s 757 mmHg 88%
    18:00 -12°C° 0 mm 5 m/s 757 mmHg 89%
    19:00 -12°C° 0 mm 5 m/s 757 mmHg 90%
    20:00 -13°C° 0 mm 5 m/s 756 mmHg 90%
    21:00 -13°C° 0 mm 5 m/s 756 mmHg 91%
    22:00 -14°C° 0 mm 5 m/s 756 mmHg 91%
    23:00 -14°C° 0.1 mm 5 m/s 756 mmHg 92%

    25 Février, Lundi

    Heure Température Précipitation Vent Pression Humidité
    00:00 -14°C° 0.1 mm 5 m/s 756 mmHg 92%
    01:00 -14°C° 0.1 mm 5 m/s 756 mmHg 93%
    02:00 -14°C° 0.1 mm 5 m/s 755 mmHg 93%
    03:00 -14°C° 0.1 mm 5 m/s 755 mmHg 93%
    04:00 -14°C° 0.1 mm 4 m/s 755 mmHg 94%
    05:00 -14°C° 0 mm 4 m/s 755 mmHg 94%
    06:00 -14°C° 0 mm 4 m/s 754 mmHg 94%
    07:00 -14°C° 0 mm 4 m/s 754 mmHg 94%
    08:00 -13°C° 0 mm 5 m/s 753 mmHg 94%
    09:00 -13°C° 0 mm 5 m/s 753 mmHg 94%
    10:00 -12°C° 0 mm 5 m/s 753 mmHg 94%
    11:00 -12°C° 0 mm 5 m/s 752 mmHg 93%
    12:00 -11°C° 0 mm 5 m/s 752 mmHg 92%
    13:00 -10°C° 0 mm 5 m/s 752 mmHg 91%
    14:00 -10°C° 0 mm 6 m/s 751 mmHg 91%
    15:00 -10°C° 0 mm 6 m/s 751 mmHg 91%
    16:00 -10°C° 0 mm 6 m/s 750 mmHg 91%
    17:00 -10°C° 0.1 mm 6 m/s 750 mmHg 91%
    18:00 -10°C° 0.1 mm 5 m/s 749 mmHg 91%
    19:00 -10°C° 0.1 mm 5 m/s 749 mmHg 91%
    20:00 -10°C° 0 mm 5 m/s 749 mmHg 91%
    21:00 -10°C° 0 mm 5 m/s 748 mmHg 91%
    22:00 -10°C° 0 mm 5 m/s 748 mmHg 91%
    23:00 -10°C° 0 mm 5 m/s 748 mmHg 91%
    Voir plus